Live-Position
3D-Globus wird geladen...
Über Starlink 32178
Group: 3 satellites
Beschreibung wird geladen...
Nächste Überflüge
Passes for default location (London). Set your location on the main map for personalized predictions.
Höhenverlauf
Loading altitude history...
No altitude history available
Zweizeiliger Elementsatz
1 60413U 24141R 26122.91668981 .00000109 00000-0 14370-4 0 9996
2 60413 53.1598 350.5616 0001029 79.5974 332.6694 15.34388645 5865
Epoch: 2. Mai 2026 •
Age: 9 hours
Aktueller Status
Höhe 465.1 km
Geschwindigkeit 7.63 km/s
Subsatellitenpunkt -8.46°S,
14.61°E
Startdatum 10. Aug. 2024
Alter 1.7 years
Typ internet
Startgruppe
Falcon 9 •
Group 8-3 •
21 satellites
Starlink 11228
60398
Starlink 11182 60399
Starlink 11234 60400
Starlink 11232 60401
Starlink 11139 60402
Starlink 11158 60403
Starlink 11199 60404
Starlink 11081 60405
Starlink 11150 60406
Starlink 11136 60407
Starlink 11196 60408
Starlink 11174 60409
Starlink 11191 60410
Starlink 32244 60411
Starlink 32186 60412
Starlink 32234 60414
Starlink 32265 60415
Starlink 32197 60416
Starlink 32255 60417
Starlink 32236 60418
Technische Details
Klassifizierung Payload
Masse 730.00 kg
Trockenmasse 700.00 kg
Gesamtmasse 730.00 kg
Länge 0.30 m
Durchmesser 4.10 m
Spannweite 29.00 m
Form Box + pan
Hersteller SPXS
Bus-Typ Starlink V2M
Phasenstatus In Orbit
Besitzer/Staat SPXS/US
Most Searched
Loading...